Location: Unspecified
(0.0000°N, 0.0000°E)
Time: 12:13:54
(UTC+00:00)

Hubble Space Telescope - Pass Details

Date: 22 March 2019
Orbit: 537 x 540 km, 28.5° (Epoch: 24 March)

Event Time Altitude Azimuth Distance (km) Brightness Sun altitude
Exits shadow 05:16:39 17° 294° (WNW) 1,404 2.3 -12.6°
Maximum altitude 05:19:47 75° 210° (SSW) 553 0.7 -11.8°
Drops below altitude 10° 05:23:54 10° 125° (SE) 1,781 4.3 -10.8°
Sets 05:26:10 0° 123° (ESE) 2,672 5.4 -10.2°
